#timestamp,LO_Frequency,Hit,StdDev 
1521532815.5,286047001.5,N
1521532835.3,286047002.5,N
1521532855.2,286047002.8,N
1521532875.0,286047000.1,N
1521532875.9,286047000.1,N
1521532895.7,286046998.6,N
1521532915.6,286047000.8,N
1521532935.4,286046998.4,N
1521532955.3,286046998.4,N
1521532975.1,286046998.5,N
1521532976.0,286046998.5,N
1521532995.8,286046999.2,N
1521533015.7,286046996.9,N
1521533035.5,286046995.5,N
1521533055.4,286046994.9,N
1521533075.2,286046997.0,N
1521533095.0,286046997.7,N
1521533095.9,286046997.7,N
1521533115.8,286046996.8,N
1521533135.6,286046995.5,N
1521533155.4,286046995.3,N
1521533175.3,286046997.9,N
1521533195.1,286046997.4,N
1521533215.9,286046997.0,N
1521533235.7,286046996.6,N
1521533255.5,286046996.7,N
1521533275.4,286046997.3,N
1521533295.2,286046995.2,N
1521533315.0,286046996.1,N
1521533315.9,286046996.1,N
1521533335.8,286046993.9,N
1521533355.6,286046994.5,N
1521533375.5,286046992.1,Y
1521533395.3,286046997.1,P
1521533415.1,286047000.1,N
1521533435.9,286047002.8,N
1521533455.7,286046999.7,N
1521533475.6,286047002.7,N
1521533495.4,286047000.3,N
1521533515.2,286047000.6,N
1521533535.1,286046998.5,N
1521533536.0,286046998.5,N
1521533555.8,286046999.4,N
1521533575.6,286046999.4,N
1521533595.5,286047000.5,N
1521533615.3,286047000.5,N
1521533635.2,286046999.0,N
1521533655.9,286046997.3,N
1521533675.7,286046996.6,N
1521533695.6,286046996.7,N
1521533715.4,286046998.0,N
1521533735.3,286046995.5,N
1521533755.1,286046995.5,N
1521533756.0,286046995.5,N
1521533775.8,286046997.3,N
1521533795.7,286046997.4,N
1521533815.5,286046997.0,N
1521533835.3,286046997.2,N
1521533855.2,286046995.2,N
1521533875.0,286046993.3,Y
1521533875.9,286046993.3,P
1521533895.8,286046995.0,N
1521533915.6,286046997.5,N
1521533935.4,286046998.0,N
1521533955.3,286046997.5,N
1521533975.1,286046996.1,N
1521533995.9,286046996.2,N
1521534015.7,286046996.2,N
1521534035.5,286046996.3,N
1521534055.4,286046993.5,Y
1521534075.2,286046999.4,P
1521534095.1,286046996.8,N
1521534096.0,286046996.8,N
1521534115.8,286046999.6,N
1521534135.6,286046998.5,N
1521534155.5,286046999.2,N
1521534175.3,286046996.7,N
1521534195.2,286046995.3,Y
1521534215.9,286046998.1,P
1521534235.7,286046998.2,P
1521534255.6,286047001.2,P
1521534275.4,286047002.7,N
1521534295.2,286047000.2,N
1521534315.1,286047000.6,N
1521534316.0,286047000.6,N
1521534335.8,286046998.5,N
1521534355.7,286046998.3,N
1521534375.5,286046998.8,N
1521534395.3,286046999.7,N
1521534415.2,286047000.3,N
1521534435.0,286046999.8,N
1521534435.9,286046999.8,N
1521534455.7,286047002.7,N
1521534475.6,286047001.7,N
1521534495.4,286047002.0,N
1521534515.3,286047001.5,N
1521534535.1,286047002.4,N
1521534536.0,286047002.4,N
1521534555.8,286047000.5,N
1521534575.7,286047001.2,N
1521534595.5,286046998.9,N
1521534615.3,286046998.5,N
1521534635.2,286046998.2,N
1521534655.0,286047000.6,N
1521534655.9,286047000.6,N
1521534675.8,286046999.7,N
1521534695.6,286047002.5,N
1521534715.4,286047002.5,N
1521534735.3,286047003.1,N
1521534755.1,286047005.8,Y
1521534775.9,286047003.9,P
1521534795.7,286047003.6,N
1521534815.5,286047003.5,N
1521534835.4,286047005.2,Y
1521534855.2,286047002.4,P
1521534875.0,286047000.6,N
1521534876.0,286047000.6,N
1521534895.8,286046998.7,N
1521534915.6,286047001.2,N
1521534935.5,286047000.7,N
1521534955.3,286046998.5,N
1521534975.1,286047001.0,N
1521534995.9,286046999.8,N
1521535015.7,286047000.5,N
1521535035.5,286047002.0,N
1521535055.4,286047002.1,N
1521535075.2,286047004.0,Y
1521535095.1,286047001.9,P
1521535096.0,286047001.9,P
1521535115.8,286047001.5,N
1521535135.7,286047002.1,Y
1521535155.5,286047000.6,P
1521535175.3,286046999.7,N
1521535195.2,286047002.6,P
1521535215.0,286047002.2,N
1521535215.9,286047002.2,N
1521535235.8,286047002.2,N
1521535255.6,286047002.2,N
1521535275.4,286047002.6,N
1521535295.3,286047002.2,N
1521535315.1,286046999.9,N
1521535335.8,286047001.8,N
1521535355.7,286047003.8,Y
1521535375.5,286047002.3,P
1521535395.4,286047002.5,P
1521535415.2,286047000.3,N
1521535435.0,286046999.8,N
1521535435.9,286046999.8,N
1521535455.8,286047000.0,N
1521535475.6,286047002.3,N
1521535495.4,286047001.5,N
1521535515.3,286047001.3,N
1521535535.1,286047002.9,N
1521535555.9,286047003.8,Y
1521535575.7,286047001.9,P
1521535595.6,286047004.3,P
1521535615.4,286047003.1,N
1521535635.2,286047002.0,N
1521535655.1,286047002.2,N
1521535656.0,286047002.2,N
1521535675.8,286047002.1,N
1521535695.6,286047004.0,Y
1521535715.5,286047000.0,P
1521535735.3,286046999.8,N
1521535755.2,286047002.2,N
1521535775.9,286047002.1,N
1521535795.7,286047002.0,N
1521535815.6,286047002.4,N
1521535835.4,286047000.0,N
1521535855.2,286047000.5,N
1521535875.1,286047000.8,N
1521535876.0,286047000.8,N
1521535895.8,286046999.8,N
1521535915.7,286047002.4,N
1521535935.5,286047002.5,N
1521535955.3,286047002.5,N
1521535975.2,286047001.6,N
1521535995.0,286047001.0,N
1521535995.9,286047001.0,N
1521536045.8,286046996.9,E
1521536055.7,286047001.2,N
1521536075.5,286047002.9,P
1521536095.4,286047003.4,P
1521536115.2,286047005.1,Y
1521536135.1,286047002.0,P
1521536136.0,286047002.0,P
1521536155.8,286047000.1,N
1521536175.6,286047002.3,N
1521536195.5,286047002.6,N
1521536215.3,286047002.4,N
1521536235.2,286047002.6,Y
1521536255.9,286047002.2,P
1521536275.7,286047002.8,P
1521536295.6,286047001.9,P
1521536315.4,286047002.5,Y
1521536335.2,286046998.3,P
1521536355.1,286046995.0,N
1521536356.0,286046995.0,N
1521536375.8,286046998.9,N
1521536395.7,286046997.2,N
